Location: Asheville, NC
(35.6000°N, 82.5500°W)
Time: 20:04:54

XW-2A - Pass Details

Date: 15 March 2018
Orbit: 436 x 455 km, 97.4° (Epoch: 19 March)

Event Time Altitude Azimuth Distance (km) Brightness Sun altitude
Exits shadow 20:30:53 - 157° (SSE) 2,373 ? -11.6°
Reaches altitude 10° 20:32:51 10° 153° (SSE) 1,535 ? -12.0°
Maximum altitude 20:36:03 52° 76° (ENE) 551 ? -12.6°
Drops below altitude 10° 20:39:17 10° 359° (N) 1,551 ? -13.3°
Sets 20:41:20 0° 354° (N) 2,427 ? -13.7°
